Temperature
16 16 16 16 16 16 16 16 16 16 16 16 16 16 16 16 16 16 15 15 15 15 15 15 15 15 15 16 16 16 16 16 16 16 16 16 15 15 15 15 15 15 15
16 16 16 16 16 16 16 16 16 16 16 16 16 16 16 16 16 16 15 15 15 15 15 15 15 15 15 15 16 15 15 15 15 15 15 15 15 15 15 15 15 15 15
16 16 16 16 16 16 16 16 15 15 15 16 16 16 16 16 16 15 15 15 15 15 15 15 15 15 15 15 15 15 15 15 15 15 15 15 15 15 15 15 15 15 15
15 15 16 16 16 16 16 15 15 15 15 15 16 16 16 16 16 15 15 15 15 15 15 15 15 15 15 15 15 15 15 15 14 14 14 14 15 15 15 15 15 15 15
15 15 15 15 15 15 15 15 15 15 15 15 15 15 16 16 15 15 15 15 15 15 15 15 15 15 15 15 15 15 15 14 14 14 14 14 15 15 15 15 15 15 14
14 15 15 15 15 15 15 15 15 15 15 15 15 15 15 15 15 15 15 15 15 15 15 15 15 15 15 15 15 15 14 14 14 14 14 14 14 14 15 15 15 14 14
14 14 14 15 15 15 15 15 15 15 15 15 15 15 15 15 15 15 15 15 15 15 15 15 15 15 15 15 15 15 14 14 14 13 14 14 14 14 14 14 14 14 14
14 14 14 14 14 14 15 15 15 15 15 15 15 15 15 15 15 15 15 15 15 15 15 15 15 15 15 15 15 14 14 14 14 13 13 14 14 14 14 14 14 14 14
13 14 14 14 14 14 14 14 14 15 15 15 15 14 15 15 15 15 15 15 15 15 15 15 15 15 15 15 14 14 14 14 14 13 13 13 14 14 13 14 14 14 14
13 13 13 13 14 14 14 14 14 14 14 14 14 14 14 14 14 14 14 14 14 14 14 14 14 14 14 14 14 14 14 14 13 13 13 13 13 13 13 13 13 13 13
13 12 13 13 13 13 13 14 14 14 14 14 14 14 14 14 14 14 14 14 14 14 14 14 14 14 14 14 14 14 14 13 13 13 13 13 13 13 13 13 13 13 13
12 12 12 13 13 13 13 13 13 14 14 14 14 14 14 14 14 14 13 13 14 14 14 14 14 14 14 14 14 13 13 13 13 13 13 13 13 13 13 13 13 13 13
12 12 12 12 13 13 13 13 13 13 13 13 13 13 13 13 13 13 13 13 13 13 13 13 13 13 13 13 13 13 13 13 13 13 13 13 13 13 13 13 12 13 13
12 12 12 12 12 13 13 13 13 13 13 13 13 13 13 13 13 13 13 13 13 13 13 13 13 13 13 13 13 13 13 13 12 12 12 12 12 12 12 12 12 12 12
11 11 12 12 12 12 12 12 12 13 13 13 13 13 13 13 13 13 13 13 13 13 13 13 12 12 12 12 12 12 12 12 12 12 12 12 12 12 12 12 12 12 12
11 11 11 11 12 12 12 12 12 12 13 13 13 13 13 13 13 12 12 12 12 12 12 12 12 12 12 12 12 12 12 12 12 12 12 12 12 12 12 12 12 12 12
11 11 11 11 12 12 12 12 12 12 12 12 12 12 12 12 12 12 12 12 12 12 12 12 12 12 12 12 12 12 12 11 11 11 11 12 12 12 12 12 11 11 11
11 11 11 11 11 11 12 12 12 12 12 12 12 12 12 12 12 12 12 12 12 12 12 12 11 11 11 11 11 11 11 11 11 11 11 11 11 11 11 11 11 11 11
11 11 11 11 11 11 11 11 11 11 11 11 12 12 12 12 12 12 12 11 11 11 11 11 11 11 11 11 11 11 11 11 11 11 11 11 11 11 11 11 11 11 11
11 11 11 11 11 11 11 11 11 11 11 11 11 11 11 11 11 11 11 11 11 11 11 11 11 11 11 11 11 10 10 10 10 10 10 10 10 10 10 10 11 11 11
10 10 11 11 11 11 11 11 11 11 11 11 11 11 11 11 11 11 11 11 11 11 11 11 10 10 10 10 10 10 10 10 10 10 10 10 10 10 10 10 10 10 10
10 10 10 10 10 10 11 11 11 11 11 11 11 11 11 11 11 11 11 11 11 11 10 10 10 10 10 10 10 10 9 9 9 9 9 9 9 9 9 9 9 9 9
10 10 10 10 10 10 10 10 10 10 10 10 10 10 10 10 10 10 10 10 10 10 10 10 10 10 10 9 9 9 9 8 8 9 9 9 9 9 9 9 9 9 9
10 10 10 10 10 10 10 10 10 10 10 10 10 10 10 10 10 10 10 10 10 10 10 10 10 10 9 9 9 9 9 9 8 8 8 8 8 8 8 8 8 8 8
10 10 10 10 10 10 10 10 10 9 10 9 9 9 9 9 9 9 9 9 9 9 9 9 9 9 9 9 9 8 8 8 8 8 7 7 7 8 8 8 8 8 8
9 10 10 10 9 10 10 9 9 9 9 9 9 9 9 9 9 9 9 9 9 9 9 9 9 9 8 8 8 8 8 8 8 7 7 7 7 7 7 7 7 7 7
Wind_Speed
7 10 11 10 9 8 8 8 9 9 9 10 10 10 9 10 10 10 10 10 10 10 10 11 10 11 11 12 13 13 13 13 14 14 14 14 14 13 13 12 13 13 14
8 10 11 10 9 8 8 8 8 9 9 9 9 10 9 9 10 10 10 10 10 10 10 10 10 10 11 11 12 12 11 11 11 12 13 13 14 14 14 14 13 12 13
9 10 10 10 9 8 8 8 8 9 9 9 9 9 10 9 9 9 9 9 9 10 10 10 11 10 10 11 11 11 10 9 8 7 8 10 12 13 13 13 13 13 12
8 9 9 9 9 8 8 7 7 8 9 9 9 9 10 10 9 9 9 9 9 10 10 10 10 10 10 10 10 9 7 6 4 3 8 11 11 12 12 12 12 12 11
8 9 9 9 8 8 8 8 7 8 9 9 9 9 10 10 10 10 9 9 9 10 10 10 10 10 9 9 9 7 5 3 2 4 10 12 12 11 11 11 11 11 11
7 9 9 8 8 8 8 8 7 7 9 9 9 9 9 10 10 10 9 9 10 10 10 10 10 9 9 9 7 6 3 2 2 6 10 12 11 10 10 10 10 10 10
6 8 8 7 8 8 8 8 8 8 9 10 10 9 9 9 10 10 10 10 10 10 9 9 9 9 9 8 6 4 2 2 2 8 10 11 10 9 9 9 9 9 9
7 7 7 7 8 8 8 9 9 8 9 10 10 10 9 9 9 10 10 10 10 10 9 9 9 8 8 7 5 3 2 2 3 7 10 10 9 9 8 7 8 8 8
6 6 6 7 7 8 9 9 9 9 8 9 10 10 10 9 9 10 10 10 10 9 8 8 8 8 7 6 4 2 1 2 3 6 9 9 8 7 7 7 7 7 8
5 5 5 6 7 8 9 10 9 9 8 8 10 10 10 10 10 10 9 9 9 9 8 8 7 7 6 5 3 1 1 2 2 8 9 8 8 6 6 6 6 6 7
4 4 4 4 6 7 9 9 9 9 9 9 9 10 9 9 9 9 9 9 9 9 8 7 7 6 6 4 3 2 1 1 5 8 8 8 7 5 5 5 5 5 5
4 4 4 4 4 6 7 9 8 8 9 8 8 9 7 8 8 9 9 9 8 8 7 7 6 6 4 3 2 2 1 2 6 8 7 8 6 5 4 4 4 4 4
4 4 4 4 4 4 4 6 6 6 6 7 7 8 8 8 8 8 8 8 7 7 5 5 5 4 3 3 2 2 2 4 6 8 7 8 6 4 4 3 3 4 4
5 4 4 4 4 4 4 4 5 5 5 5 5 7 6 5 5 5 5 6 5 4 4 3 2 2 3 3 3 3 4 6 8 8 7 8 6 5 4 4 4 4 4
5 4 4 5 5 4 4 3 5 5 5 6 5 6 7 5 5 5 5 5 5 4 4 2 2 3 4 4 4 5 5 7 7 8 8 9 8 6 6 5 5 5 5
5 5 4 4 4 4 3 2 3 5 6 6 5 6 7 6 6 5 4 4 4 5 4 3 3 3 3 4 4 5 6 7 7 8 8 8 8 7 6 6 6 5 5
6 5 5 5 5 4 4 3 4 6 7 6 5 7 7 8 6 5 4 3 4 5 5 4 4 4 3 4 4 5 5 6 6 6 7 7 7 7 6 6 5 5 4
6 6 6 5 6 5 4 4 4 6 6 6 6 6 7 7 7 5 4 3 4 5 4 3 3 3 3 3 3 2 3 4 5 6 6 7 7 6 5 5 6 5 4
7 7 6 6 6 5 5 5 4 5 6 6 6 6 7 7 7 6 4 4 5 4 3 2 2 3 3 3 2 2 2 3 3 5 5 6 6 6 5 4 5 5 4
7 7 7 6 6 6 5 4 4 4 4 5 5 6 7 6 6 6 4 4 4 3 2 2 3 3 3 2 2 3 2 2 3 3 3 5 6 6 5 4 4 4 3
6 7 7 7 6 6 5 5 4 4 4 3 4 7 8 7 6 5 4 3 3 3 3 3 3 3 2 2 3 2 2 2 2 2 2 3 4 5 5 5 4 3 2
7 7 8 8 8 7 5 4 4 4 3 4 4 6 7 7 6 5 4 3 3 3 3 3 3 2 1 1 2 1 1 2 2 1 1 2 2 3 3 4 4 4 3
7 8 8 9 8 7 7 5 5 4 4 3 4 3 5 7 6 5 4 3 2 2 3 3 3 3 2 1 1 2 2 1 0 1 0 1 1 1 1 3 3 3 3
7 7 7 8 9 8 8 7 7 5 5 4 4 4 4 6 6 5 4 4 3 2 3 2 2 2 2 1 0 1 1 2 2 0 1 1 1 1 1 2 2 3 2
7 7 7 7 8 8 8 8 7 5 4 4 5 5 5 4 5 5 5 4 3 2 2 2 2 2 2 2 1 0 1 1 1 2 1 1 2 1 1 1 1 1 1
7 7 7 8 8 8 8 8 7 7 6 7 6 6 5 4 4 4 4 4 3 2 2 2 2 2 2 2 1 1 1 1 1 1 1 1 1 2 2 1 1 1 1
Wind_Direction
99 114 122 119 116 114 119 128 132 131 128 123 119 114 112 110 106 103 101 100 102 102 102 100 99 97 93 89 85 82 83 83 85 83 80 79 79 77 77 76 75 76 79
104 119 126 124 121 118 116 120 130 131 132 131 128 123 120 117 112 107 105 103 103 103 103 102 100 102 99 95 92 89 89 92 94 93 88 82 79 76 73 72 75 79 80
103 115 123 121 123 124 121 120 125 130 132 135 135 131 128 125 120 114 110 109 106 104 101 100 100 103 101 99 98 97 97 97 98 101 100 97 86 78 77 75 78 78 79
103 111 119 121 122 125 125 124 127 132 133 132 137 134 131 129 124 118 114 111 106 103 101 99 96 102 104 102 102 104 104 102 95 84 96 91 88 83 80 78 79 80 79
100 103 111 122 124 125 126 128 130 133 137 133 129 133 133 132 126 122 118 112 106 105 105 102 98 99 103 105 105 106 108 98 53 84 89 89 87 85 81 79 80 80 80
99 102 114 126 128 128 130 134 136 137 140 136 130 126 132 134 129 125 119 112 109 108 106 105 101 100 104 104 108 112 102 48 0 93 91 91 90 89 86 83 81 82 82
104 106 122 129 131 132 134 139 142 143 142 139 135 129 122 129 130 126 118 113 112 108 108 109 106 104 104 107 106 106 86 10 36 87 91 91 92 93 93 90 85 82 83
110 113 126 127 131 139 140 138 137 139 143 142 136 130 125 119 120 123 119 116 115 112 108 110 109 106 106 107 109 103 68 21 57 89 90 90 95 98 96 92 90 85 83
113 120 125 133 133 137 138 138 138 132 131 143 140 134 129 125 120 114 116 119 117 114 111 110 111 110 106 105 106 112 54 13 34 87 91 88 92 98 97 92 88 86 84
122 128 131 135 136 135 135 137 139 135 130 136 143 140 134 130 125 122 118 116 118 116 113 112 112 113 111 112 118 131 329 359 59 81 88 90 90 94 97 94 91 88 87
132 131 128 134 135 135 140 141 140 138 138 138 147 148 144 139 130 122 123 119 115 115 116 117 117 114 116 123 146 171 242 16 83 83 86 95 94 90 96 98 95 91 86
150 148 143 136 132 137 143 144 146 149 151 150 151 155 149 130 129 128 126 124 119 116 115 116 117 117 114 119 148 175 186 92 95 89 90 100 97 91 99 104 100 94 90
158 156 147 143 134 134 142 150 146 142 144 142 145 153 140 130 128 128 127 124 122 118 110 113 119 118 110 110 121 135 92 83 89 90 89 99 98 88 91 101 105 94 93
161 159 156 149 142 138 139 153 144 141 136 130 139 148 132 125 122 121 118 120 120 115 103 104 104 107 91 87 77 80 80 81 88 94 89 95 94 88 80 86 94 91 87
168 163 159 153 150 146 135 147 148 142 137 132 131 134 129 125 127 124 115 114 112 111 105 81 69 70 69 71 69 67 74 86 91 97 93 84 80 82 77 74 86 96 96
169 163 152 154 144 136 135 135 134 131 128 128 130 134 131 121 117 118 116 112 108 108 105 90 81 70 63 65 62 65 69 76 84 95 106 95 83 77 77 67 65 75 85
167 159 159 154 138 133 131 126 122 124 126 125 124 129 125 120 116 113 115 114 104 107 99 84 82 74 67 61 56 58 65 68 78 92 103 104 99 82 73 60 52 56 60
163 156 158 153 142 139 133 121 122 126 124 122 123 121 116 116 120 113 113 108 104 99 89 86 82 81 70 65 55 52 65 68 68 80 87 93 101 98 82 66 50 54 59
163 156 154 144 142 137 130 117 117 115 116 122 121 117 115 112 117 113 110 112 111 98 91 96 95 96 90 71 62 61 68 74 68 80 82 87 93 102 97 83 66 61 62
159 155 153 144 144 136 126 115 110 107 109 113 119 122 118 117 115 109 110 109 108 105 97 99 108 101 104 100 72 60 52 78 74 69 77 84 82 84 87 86 75 63 57
157 154 152 149 147 139 138 137 135 136 127 120 122 122 121 119 115 115 115 108 105 114 118 107 109 107 90 92 81 57 20 55 90 68 71 79 75 71 65 63 61 51 48
162 160 157 154 151 149 146 140 136 135 127 122 117 115 121 120 117 120 118 118 118 122 117 110 111 111 108 101 109 115 77 2 354 33 77 92 74 59 54 53 51 38 36
164 165 163 157 155 150 141 130 122 112 107 107 117 127 126 126 122 115 115 118 117 123 132 124 123 123 145 154 78 116 134 188 332 340 75 90 86 58 37 46 45 33 30
167 161 156 157 155 149 143 141 143 149 148 151 143 143 132 128 125 121 118 116 120 115 129 137 125 132 134 156 56 41 98 132 144 246 337 25 58 38 7 19 22 31 32
157 158 156 151 151 151 148 147 147 150 141 134 134 141 137 129 126 127 125 118 111 108 121 129 129 130 140 146 138 108 63 50 120 161 235 291 339 317 329 357 351 355 346
152 154 154 154 155 155 150 150 150 150 145 142 148 153 148 139 127 132 132 125 118 113 119 128 127 133 140 137 133 138 141 142 198 163 218 237 271 287 296 297 296 280 283
Height
1508 1509 1511 1512 1514 1515 1517 1518 1520 1521 1523 1524 1525 1527 1528 1529 1530 1531 1532 1533 1534 1535 1536 1537 1538 1539 1540 1540 1541 1542 1543 1544 1545 1545 1546 1547 1547 1547 1548 1548 1548 1549 1549
1507 1509 1510 1512 1513 1515 1517 1518 1520 1521 1523 1524 1525 1527 1528 1529 1530 1531 1532 1533 1534 1535 1537 1538 1538 1539 1541 1541 1542 1543 1544 1545 1546 1547 1548 1548 1549 1549 1549 1550 1550 1550 1550
1506 1508 1510 1511 1513 1515 1516 1518 1519 1521 1522 1524 1525 1527 1528 1529 1530 1532 1533 1534 1535 1536 1537 1538 1539 1540 1541 1542 1543 1544 1545 1546 1547 1548 1549 1549 1550 1550 1551 1551 1551 1552 1552
1506 1508 1509 1511 1513 1514 1516 1517 1519 1521 1522 1524 1525 1526 1528 1529 1531 1532 1533 1534 1535 1536 1537 1539 1540 1541 1542 1543 1544 1545 1546 1548 1549 1549 1550 1551 1551 1552 1552 1552 1553 1553 1553
1506 1507 1509 1511 1512 1513 1515 1517 1518 1520 1522 1523 1525 1526 1528 1529 1531 1532 1533 1535 1536 1537 1538 1539 1540 1542 1543 1544 1545 1546 1547 1549 1550 1551 1551 1552 1552 1553 1553 1553 1554 1554 1554
1505 1506 1508 1510 1511 1513 1514 1516 1518 1519 1521 1523 1524 1526 1527 1529 1530 1532 1533 1535 1536 1537 1539 1540 1541 1542 1543 1544 1546 1547 1548 1549 1551 1552 1552 1553 1553 1553 1554 1554 1554 1555 1555
1504 1505 1507 1508 1510 1511 1513 1515 1517 1518 1520 1522 1524 1525 1527 1529 1530 1532 1533 1535 1536 1538 1539 1540 1541 1543 1544 1545 1546 1547 1549 1550 1551 1552 1552 1553 1554 1554 1554 1555 1555 1555 1556
1503 1504 1506 1507 1509 1510 1512 1513 1515 1517 1519 1521 1523 1525 1526 1527 1530 1532 1533 1535 1536 1537 1539 1540 1542 1543 1544 1545 1547 1548 1549 1550 1552 1552 1553 1553 1554 1554 1555 1555 1556 1556 1556
1502 1503 1504 1506 1507 1509 1511 1512 1514 1516 1518 1520 1522 1524 1526 1528 1529 1531 1533 1534 1536 1537 1539 1541 1542 1543 1544 1546 1547 1548 1549 1551 1552 1553 1553 1554 1554 1555 1555 1555 1556 1556 1557
1501 1502 1503 1504 1506 1507 1509 1511 1513 1515 1517 1519 1522 1524 1526 1527 1529 1531 1533 1534 1536 1538 1539 1541 1542 1543 1545 1546 1547 1548 1549 1551 1552 1552 1553 1553 1554 1554 1555 1555 1556 1556 1557
1500 1500 1501 1503 1504 1506 1508 1510 1512 1514 1516 1518 1521 1523 1525 1527 1528 1530 1532 1534 1535 1537 1539 1540 1542 1543 1544 1546 1547 1548 1549 1550 1551 1552 1552 1553 1554 1554 1554 1555 1556 1556 1556
1497 1499 1500 1501 1502 1504 1506 1508 1510 1512 1515 1517 1519 1522 1524 1526 1527 1529 1532 1533 1535 1537 1538 1540 1541 1543 1544 1545 1546 1548 1549 1550 1551 1551 1552 1552 1553 1553 1554 1555 1555 1556 1556
1495 1496 1498 1499 1501 1502 1504 1506 1509 1511 1513 1516 1518 1520 1523 1525 1527 1528 1530 1532 1534 1536 1538 1539 1541 1542 1543 1545 1546 1547 1548 1549 1550 1550 1551 1552 1552 1553 1553 1554 1554 1555 1556
1493 1494 1496 1497 1499 1500 1502 1504 1506 1509 1512 1514 1516 1519 1521 1523 1525 1527 1529 1531 1534 1535 1537 1538 1540 1541 1543 1544 1545 1546 1547 1548 1549 1549 1550 1551 1552 1552 1553 1553 1553 1554 1554
1491 1492 1493 1495 1496 1498 1500 1502 1505 1507 1510 1512 1515 1517 1520 1522 1524 1526 1528 1530 1533 1535 1536 1538 1539 1541 1542 1543 1544 1545 1546 1547 1548 1548 1549 1549 1550 1551 1552 1552 1553 1553 1553
1488 1489 1491 1493 1494 1496 1498 1500 1503 1505 1508 1511 1513 1515 1518 1520 1522 1525 1527 1530 1532 1534 1535 1537 1539 1540 1541 1542 1543 1544 1545 1546 1547 1547 1548 1548 1549 1550 1551 1552 1552 1552 1552
1485 1487 1489 1491 1492 1494 1496 1498 1501 1503 1506 1509 1511 1514 1517 1519 1522 1524 1527 1529 1531 1533 1534 1536 1537 1539 1540 1541 1542 1543 1544 1545 1546 1546 1547 1547 1548 1549 1549 1550 1551 1551 1551
1483 1484 1486 1488 1490 1492 1495 1497 1499 1501 1504 1506 1509 1512 1515 1518 1521 1523 1526 1528 1530 1532 1533 1535 1536 1537 1539 1540 1541 1542 1543 1544 1545 1545 1545 1546 1546 1547 1547 1548 1548 1549 1549
1480 1482 1483 1486 1488 1490 1493 1495 1498 1500 1502 1505 1508 1510 1514 1517 1520 1522 1524 1527 1529 1531 1532 1534 1535 1536 1538 1539 1540 1541 1542 1543 1543 1544 1544 1544 1545 1545 1546 1546 1546 1547 1547
1477 1479 1481 1484 1486 1489 1491 1493 1496 1499 1501 1504 1507 1509 1512 1515 1518 1521 1523 1526 1528 1529 1531 1532 1534 1535 1537 1538 1538 1539 1540 1541 1542 1542 1543 1543 1543 1543 1544 1544 1545 1545 1545
1474 1476 1479 1481 1484 1486 1488 1491 1494 1497 1500 1502 1506 1508 1511 1514 1516 1519 1522 1524 1526 1528 1529 1531 1532 1534 1535 1536 1537 1537 1539 1540 1540 1541 1541 1541 1541 1542 1542 1542 1543 1543 1543
1471 1474 1477 1479 1482 1484 1487 1489 1493 1495 1499 1501 1504 1507 1510 1512 1515 1517 1520 1522 1524 1526 1528 1529 1530 1531 1533 1534 1535 1536 1537 1539 1539 1539 1539 1539 1540 1540 1540 1540 1541 1541 1541
1469 1471 1473 1476 1479 1482 1485 1488 1491 1494 1497 1499 1502 1505 1508 1510 1513 1516 1518 1520 1522 1524 1526 1527 1528 1530 1531 1532 1533 1535 1535 1536 1537 1537 1537 1538 1538 1538 1538 1538 1538 1539 1538
1466 1468 1471 1474 1477 1480 1483 1486 1489 1491 1494 1497 1500 1503 1506 1509 1511 1514 1515 1518 1520 1522 1523 1525 1526 1528 1529 1530 1531 1532 1534 1534 1535 1535 1535 1535 1535 1536 1536 1536 1536 1536 1536
1464 1466 1469 1472 1475 1478 1481 1484 1486 1489 1492 1495 1498 1502 1504 1506 1509 1511 1514 1515 1517 1519 1521 1523 1524 1525 1527 1527 1528 1529 1530 1532 1532 1532 1532 1532 1533 1533 1533 1533 1533 1533 1533
1461 1464 1467 1469 1472 1475 1478 1481 1484 1487 1490 1493 1496 1499 1501 1504 1506 1509 1511 1513 1515 1517 1519 1520 1522 1523 1524 1525 1526 1527 1528 1529 1529 1530 1529 1529 1529 1530 1530 1530 1530 1530 1530